This demonstration page uses our WeatherBlox Daily Observations layout. Learn more.

Left ArrowRight Arrow

Hourly Observations for September 10, 2019

Temp ( °F °C ) Dew Point ( °F °C ) Humidity (%) Winds ( mph kmh ) Pressure ( in mb ) Visibility ( mi km ) Precip ( " mm )
12:54 am 00:54 Clear 75 23.9 66 18.9 74 74 S 12 19 29.84 1011 10 16 0.00 0.00
1:54 am 01:54 Clear 76 24.4 65 18.3 69 69 S 13 20 29.85 1011 10 16 0.00 0.00
2:54 am 02:54 Mostly Cloudy 76 24.4 65 18.3 69 69 S 14 22 29.85 1011 10 16 0.00 0.00
3:54 am 03:54 Partly Cloudy 75 23.9 65 18.3 71 71 S 10 17 29.84 1011 10 16 0.00 0.00
4:54 am 04:54 Partly Cloudy 76 24.4 65 18.3 69 69 SSW 12 19 29.85 1011 10 16 0.00 0.00
5:54 am 05:54 Mostly Cloudy 74 23.3 65 18.3 74 74 SSW 6 9 29.88 1012 10 16 0.00 0.00
6:54 am 06:54 Partly Cloudy 72 22.2 65 18.3 79 79 S 6 9 29.90 1013 10 16 0.00 0.00
7:54 am 07:54 Sunny 71 21.7 65 18.3 81 81 S 6 9 29.92 1013 10 16 0.00 0.00
8:54 am 08:54 Sunny 75 23.9 66 18.9 74 74 SSE 6 9 29.94 1014 10 16 0.00 0.00
9:54 am 09:54 Mostly Sunny 79 26.1 68 20 69 69 S 8 13 29.95 1014 10 16 0.00 0.00
10:54 am 10:54 Sunny 83 28.3 68 20 61 61 S 8 13 29.95 1014 10 16 0.00 0.00
12:54 pm 12:54 Sunny 87 30.6 69 20.6 55 55 S 9 15 29.93 1014 10 16 0.00 0.00
1:54 pm 13:54 Mostly Sunny 89 31.7 70 21.1 53 53 SSE 12 19 29.92 1013 10 16 0.00 0.00
2:54 pm 14:54 Mostly Sunny 90 32.2 71 21.7 54 54 SSW 14 22 29.91 1013 10 16 0.00 0.00
3:54 pm 15:54 Mostly Cloudy 91 32.8 71 21.7 52 52 SSE 22 35 29.90 1012 10 16 0.00 0.00
4:54 pm 16:54 Sunny 89 31.7 71 21.7 55 55 S 20 31 29.89 1012 10 16 0.00 0.00
5:54 pm 17:54 Mostly Sunny 87 30.6 71 21.7 59 59 S 16 26 29.88 1012 10 16 0.00 0.00
6:54 pm 18:54 Mostly Sunny 84 28.9 70 21.1 63 63 S 15 24 29.88 1012 10 16 0.00 0.00
7:54 pm 19:54 Clear 82 27.8 71 21.7 69 69 SSE 14 22 29.87 1012 10 16 0.00 0.00
8:54 pm 20:54 Clear 80 26.7 71 21.7 74 74 SSE 17 28 29.87 1011 10 16 0.00 0.00
9:54 pm 21:54 Clear 79 26.1 71 21.7 77 77 SSE 14 22 29.88 1012 10 16 0.00 0.00
10:54 pm 22:54 Clear 78 25.6 71 21.7 79 79 S 15 24 29.89 1012 10 16 0.00 0.00
11:54 pm 23:54 Clear 78 25.6 71 21.7 79 79 S 16 26 29.92 1013 10 16 0.00 0.00

Powered by AerisWeather